Weather History for Medford, WI

Change the Weather History Date:

Monday, May 20, 2013

  Actual Average Record
Temperature  
Mean Temperature 68 °F -  
Max Temperature 77 °F 68 °F 86 °F (1975)
Min Temperature 59 °F 44 °F 26 °F (2002)
Cooling Degree Days 3    
Growing Degree Days 18 (Base 50)    
Moisture  
Dew Point 59 °F    
Average Humidity 75    
Maximum Humidity 94    
Minimum Humidity 50    
Precipitation  
Precipitation 0.00 in - - ()
Sea Level Pressure  
Sea Level Pressure 29.65 in    
Wind  
Wind Speed 9 mph (South)    
Max Wind Speed 23 mph    
Max Gust Speed 28 mph    
Visibility 10 miles    
Events Rain    
Averages and records for this station are not official NWS values.
T = Trace of Precipitation, MM = Missing Value Source: NWS Daily Summary

Daily Weather History Graph

Daily Weather History Graph

Search for Another Location

Airport:

Trip Planner

Search our weather history database for the weather conditions in past years. The results will help you decide how hot, cold, wet, or windy it might be!

Date:

Astronomy

May. 20, 2013 Rise Set
Actual Time 5:26 AM CDT 8:29 PM CDT
Civil Twilight 4:51 AM CDT 9:04 PM CDT
Nautical Twilight 4:06 AM CDT 9:50 PM CDT
Astronomical Twilight 3:12 AM CDT 10:44 PM CDT
Moon 3:25 PM CDT (5/20) 2:35 AM CDT (5/20)
Length of Visible Light 16h 13m
Length of Day
15h 03m
Waxing Gibbous, 75% of the Moon is Illuminated
May 20
Waxing Gibbous
May 24
Full
May 31
Last Quarter
Jun 8
New
Jun 16
First Quarter

Hourly Weather History & Observations

Time (CDT) Temp. Dew Point Humidity Pressure Visibility Wind Dir Wind Speed Gust Speed Precip Events Conditions
12:15 AM 66.2 °F 62.6 °F 88% 29.66 in 10.0 mi NE 4.6 mph - N/A   Mostly Cloudy
12:35 AM 66.2 °F 64.4 °F 94% 29.66 in 7.0 mi Calm Calm - N/A   Mostly Cloudy
12:55 AM 66.2 °F 62.6 °F 88% 29.66 in 7.0 mi ESE 8.1 mph - N/A   Mostly Cloudy
1:15 AM 69.8 °F 62.6 °F 78% 29.65 in 10.0 mi SE 8.1 mph - N/A   Scattered Clouds
1:35 AM 69.8 °F 62.6 °F 78% 29.66 in 7.0 mi SSE 6.9 mph - N/A Rain Light Rain
1:55 AM 66.2 °F 62.6 °F 88% 29.68 in 7.0 mi SSW 9.2 mph - N/A   Scattered Clouds
2:15 AM 66.2 °F 62.6 °F 88% 29.70 in 10.0 mi South 5.8 mph - N/A Rain Light Rain
2:35 AM 64.4 °F 62.6 °F 94% 29.74 in 5.0 mi South 10.4 mph 23.0 mph N/A Rain Rain
3:15 AM 62.6 °F 60.8 °F 94% 29.63 in 10.0 mi ENE 10.4 mph - N/A Rain Rain
3:35 AM 62.6 °F 60.8 °F 94% 29.59 in 10.0 mi East 8.1 mph - N/A   Scattered Clouds
3:55 AM 62.6 °F 60.8 °F 94% 29.61 in 10.0 mi ESE 10.4 mph 17.3 mph N/A   Clear
4:35 AM 62.6 °F 60.8 °F 94% 29.57 in 10.0 mi ESE 13.8 mph 19.6 mph N/A   Clear
4:55 AM 62.6 °F 60.8 °F 94% 29.58 in 10.0 mi SE 8.1 mph - N/A   Clear
5:15 AM 62.6 °F 59.0 °F 88% 29.57 in 10.0 mi SE 8.1 mph - N/A   Clear
5:35 AM 62.6 °F 59.0 °F 88% 29.58 in 10.0 mi SE 6.9 mph - N/A   Clear
5:55 AM 62.6 °F 59.0 °F 88% 29.61 in 10.0 mi SSE 8.1 mph - N/A   Clear
6:15 AM 62.6 °F 59.0 °F 88% 29.62 in 10.0 mi SSE 10.4 mph 16.1 mph N/A   Clear
6:35 AM 62.6 °F 59.0 °F 88% 29.63 in 10.0 mi SSE 13.8 mph 21.9 mph N/A   Clear
6:55 AM 62.6 °F 60.8 °F 94% 29.64 in 10.0 mi SSE 11.5 mph 19.6 mph N/A   Clear
7:15 AM 62.6 °F 60.8 °F 94% 29.66 in 10.0 mi SSE 12.7 mph 19.6 mph N/A   Mostly Cloudy
7:35 AM 62.6 °F 60.8 °F 94% 29.67 in 10.0 mi SSE 11.5 mph 17.3 mph N/A   Overcast
7:55 AM 64.4 °F 60.8 °F 88% 29.68 in 10.0 mi SSE 12.7 mph 19.6 mph N/A   Overcast
8:15 AM 64.4 °F 60.8 °F 88% 29.68 in 10.0 mi SSE 13.8 mph 19.6 mph N/A   Mostly Cloudy
8:35 AM 64.4 °F 60.8 °F 88% 29.68 in 10.0 mi SSE 11.5 mph 18.4 mph N/A   Mostly Cloudy
9:15 AM 64.4 °F 60.8 °F 88% 29.66 in 10.0 mi SSE 15.0 mph 24.2 mph N/A   Mostly Cloudy
9:35 AM 66.2 °F 60.8 °F 83% 29.67 in 10.0 mi South 12.7 mph 21.9 mph N/A   Mostly Cloudy
9:55 AM 66.2 °F 60.8 °F 83% 29.67 in 10.0 mi SSW 13.8 mph 21.9 mph N/A   Scattered Clouds
10:35 AM 68.0 °F 60.8 °F 78% 29.68 in 10.0 mi South 10.4 mph 17.3 mph N/A   Overcast
10:55 AM 68.0 °F 60.8 °F 78% 29.67 in 10.0 mi South 15.0 mph - N/A   Overcast
11:15 AM 68.0 °F 60.8 °F 78% 29.68 in 10.0 mi South 13.8 mph 19.6 mph N/A   Overcast
11:35 AM 68.0 °F 59.0 °F 73% 29.68 in 10.0 mi SSW 15.0 mph - N/A   Mostly Cloudy
11:55 AM 69.8 °F 59.0 °F 68% 29.67 in 10.0 mi South 11.5 mph 16.1 mph N/A   Mostly Cloudy
12:15 PM 69.8 °F 60.8 °F 73% 29.66 in 10.0 mi South 11.5 mph - N/A   Mostly Cloudy
12:35 PM 71.6 °F 60.8 °F 69% 29.66 in 10.0 mi South 10.4 mph - N/A   Scattered Clouds
12:55 PM 71.6 °F 60.8 °F 69% 29.65 in 10.0 mi South 9.2 mph - N/A   Mostly Cloudy
1:15 PM 73.4 °F 60.8 °F 65% 29.64 in 10.0 mi South 12.7 mph 20.7 mph N/A   Scattered Clouds
1:55 PM 73.4 °F 60.8 °F 65% 29.64 in 10.0 mi SSE 10.4 mph 20.7 mph N/A   Mostly Cloudy
2:15 PM 75.2 °F 57.2 °F 53% 29.64 in 10.0 mi South 13.8 mph 21.9 mph N/A   Mostly Cloudy
2:35 PM 75.2 °F 57.2 °F 53% 29.64 in 10.0 mi South 12.7 mph 20.7 mph N/A   Mostly Cloudy
2:55 PM 75.2 °F 57.2 °F 53% 29.63 in 10.0 mi South 18.4 mph 25.3 mph N/A   Mostly Cloudy
3:15 PM 77.0 °F 57.2 °F 50% 29.63 in 10.0 mi SSW 18.4 mph 27.6 mph N/A   Mostly Cloudy
3:35 PM 77.0 °F 57.2 °F 50% 29.63 in 10.0 mi SSW 18.4 mph 26.5 mph N/A   Mostly Cloudy
3:55 PM 75.2 °F 59.0 °F 57% 29.63 in 10.0 mi SSW 19.6 mph 27.6 mph N/A   Mostly Cloudy
4:15 PM 75.2 °F 57.2 °F 53% 29.63 in 10.0 mi SSW 18.4 mph 26.5 mph N/A   Mostly Cloudy
4:35 PM 77.0 °F 57.2 °F 50% 29.63 in 10.0 mi SSW 23.0 mph 27.6 mph N/A   Scattered Clouds
4:55 PM 75.2 °F 57.2 °F 53% 29.63 in 10.0 mi SSW 16.1 mph 24.2 mph N/A   Mostly Cloudy
5:15 PM 75.2 °F 57.2 °F 53% 29.63 in 10.0 mi SSW 15.0 mph 25.3 mph N/A   Scattered Clouds
5:35 PM 75.2 °F 57.2 °F 53% 29.63 in 10.0 mi SSW 19.6 mph 25.3 mph N/A   Mostly Cloudy
5:55 PM 75.2 °F 57.2 °F 53% 29.63 in 10.0 mi SSW 18.4 mph 23.0 mph N/A   Scattered Clouds
6:15 PM 75.2 °F 59.0 °F 57% 29.63 in 10.0 mi SSW 12.7 mph - N/A   Scattered Clouds
6:35 PM 75.2 °F 57.2 °F 53% 29.64 in 10.0 mi SSW 16.1 mph 23.0 mph N/A   Clear
6:55 PM 73.4 °F 57.2 °F 57% 29.64 in 10.0 mi SSW 13.8 mph 24.2 mph N/A   Scattered Clouds
7:15 PM 73.4 °F 57.2 °F 57% 29.64 in 10.0 mi SSW 11.5 mph - N/A   Scattered Clouds
7:35 PM 71.6 °F 57.2 °F 60% 29.65 in 10.0 mi SSW 10.4 mph - N/A   Clear
7:55 PM 71.6 °F 59.0 °F 64% 29.66 in 10.0 mi SW 6.9 mph - N/A   Scattered Clouds
8:15 PM 69.8 °F 59.0 °F 68% 29.66 in 10.0 mi SW 4.6 mph - N/A   Scattered Clouds
8:35 PM 69.8 °F 57.2 °F 64% 29.66 in 10.0 mi WSW 5.8 mph - N/A   Mostly Cloudy
9:15 PM 66.2 °F 57.2 °F 73% 29.67 in 10.0 mi Calm Calm - N/A   Clear
9:35 PM 64.4 °F 57.2 °F 77% 29.67 in 10.0 mi Calm Calm - N/A   Clear
9:55 PM 64.4 °F 57.2 °F 77% 29.68 in 10.0 mi Calm Calm - N/A   Clear
10:15 PM 62.6 °F 57.2 °F 82% 29.67 in 10.0 mi Calm Calm - N/A   Clear
10:35 PM 62.6 °F 57.2 °F 82% 29.67 in 10.0 mi East 3.5 mph - N/A   Clear
10:55 PM 60.8 °F 57.2 °F 88% 29.65 in 10.0 mi Calm Calm - N/A   Clear
11:15 PM 59.0 °F 55.4 °F 88% 29.65 in 10.0 mi East 4.6 mph - N/A   Clear
11:35 PM 60.8 °F 55.4 °F 82% 29.64 in 10.0 mi ENE 5.8 mph - N/A   Clear
11:55 PM 59.0 °F 55.4 °F 88% 29.64 in 10.0 mi ENE 4.6 mph - N/A   Mostly Cloudy